TimeMST,TemperatureF,Dew PointF,Humidity,Sea Level PressureIn,VisibilityMPH,Wind Direction,Wind SpeedMPH,Gust SpeedMPH,PrecipitationIn,Events,Conditions,WindDirDegrees,DateUTC
12:53 AM,71.1,41.0,34,29.77,10.0,West,4.6,-,N/A,,Clear,260,2013-10-04 07:53:00
1:53 AM,72.0,39.9,31,29.77,10.0,South,3.5,-,N/A,,Clear,180,2013-10-04 08:53:00
2:53 AM,69.1,41.0,36,29.76,10.0,SSW,3.5,-,N/A,,Clear,200,2013-10-04 09:53:00
3:53 AM,68.0,41.0,37,29.78,10.0,Calm,Calm,-,N/A,,Clear,0,2013-10-04 10:53:00
4:53 AM,68.0,41.0,37,29.79,10.0,East,4.6,-,N/A,,Clear,100,2013-10-04 11:53:00
5:53 AM,64.0,39.9,41,29.81,10.0,South,5.8,-,N/A,,Clear,170,2013-10-04 12:53:00
6:53 AM,63.0,39.9,43,29.84,10.0,SSE,5.8,-,N/A,,Clear,150,2013-10-04 13:53:00
7:53 AM,66.9,43.0,42,29.86,10.0,South,5.8,-,N/A,,Clear,170,2013-10-04 14:53:00
8:53 AM,72.0,45.0,38,29.88,10.0,Calm,Calm,-,N/A,,Clear,0,2013-10-04 15:53:00
9:53 AM,78.1,39.9,25,29.88,10.0,NW,5.8,-,N/A,,Clear,310,2013-10-04 16:53:00
10:53 AM,79.0,39.9,25,29.88,10.0,Calm,Calm,-,N/A,,Clear,0,2013-10-04 17:53:00
11:53 AM,81.0,39.0,22,29.87,10.0,Calm,Calm,-,N/A,,Clear,0,2013-10-04 18:53:00
12:53 PM,82.0,37.0,20,29.85,10.0,WSW,5.8,-,N/A,,Clear,250,2013-10-04 19:53:00
1:53 PM,84.9,34.0,16,29.83,10.0,WNW,11.5,17.3,N/A,,Clear,300,2013-10-04 20:53:00
2:53 PM,86.0,34.0,16,29.82,10.0,NW,13.8,19.6,N/A,,Clear,310,2013-10-04 21:53:00
3:53 PM,86.0,34.0,16,29.81,10.0,NW,9.2,-,N/A,,Clear,310,2013-10-04 22:53:00
4:53 PM,84.9,37.9,19,29.81,10.0,NW,9.2,-,N/A,,Clear,320,2013-10-04 23:53:00
5:53 PM,81.0,41.0,24,29.83,10.0,NNW,11.5,-,N/A,,Clear,340,2013-10-05 00:53:00
6:53 PM,78.1,35.1,21,29.86,10.0,NNW,11.5,-,N/A,,Clear,330,2013-10-05 01:53:00
7:53 PM,77.0,30.0,18,29.88,10.0,NW,13.8,-,N/A,,Clear,320,2013-10-05 02:53:00
8:53 PM,75.9,21.9,13,29.90,10.0,NW,10.4,-,N/A,,Clear,310,2013-10-05 03:53:00
9:53 PM,69.1,24.1,18,29.93,10.0,SW,4.6,-,N/A,,Clear,220,2013-10-05 04:53:00
10:53 PM,66.9,21.9,18,29.94,10.0,WSW,6.9,-,N/A,,Clear,240,2013-10-05 05:53:00
11:53 PM,66.0,19.0,17,29.94,10.0,West,9.2,-,N/A,,Clear,270,2013-10-05 06:53:00